Wind_Speed
23 23 22 21 20 21 21 22 23 21 21 19 20 22 23 22 22 21 21 23 23 23 24 25 26 26 27 28 30 32 33 35 36 35 35 35 35 34 33 33 34 35 35 36
22 22 22 21 21 21 22 22 23 23 22 22 21 22 22 23 22 22 22 23 24 24 24 24 24 24 25 26 28 29 29 30 32 32 33 33 34 34 34 34 34 34 34 34
21 22 22 21 21 22 22 22 23 23 23 23 23 22 22 22 22 22 23 23 23 24 23 22 23 23 23 24 25 27 27 28 29 29 29 31 32 31 31 32 33 32 32 32
21 21 21 21 21 21 21 21 22 22 23 23 23 23 22 22 22 23 24 25 25 25 24 23 22 22 23 23 24 25 25 26 27 27 27 28 28 29 29 29 29 30 30 31
21 21 21 21 21 22 22 22 22 23 24 24 24 24 23 23 23 23 24 24 25 24 23 22 22 21 22 22 22 22 22 23 24 25 26 27 27 27 28 28 29 29 29 30
22 22 22 21 21 22 22 22 22 23 24 25 25 25 24 24 24 23 24 24 24 23 22 21 21 21 20 20 20 20 20 21 22 23 25 26 27 26 27 27 27 28 28 29
23 22 22 22 21 22 22 22 22 23 24 25 25 25 25 24 23 23 23 23 23 22 22 21 21 21 20 19 19 19 19 19 20 22 23 24 24 25 25 25 26 26 27 28
22 22 22 22 22 22 22 23 23 24 24 25 25 25 24 23 23 23 23 22 22 21 21 21 20 19 19 19 19 19 18 19 20 21 22 22 23 23 24 24 25 25 25 26
21 21 22 22 23 23 24 24 24 24 24 25 24 24 23 23 23 23 23 22 21 20 20 20 19 18 18 18 19 19 19 19 20 20 21 22 23 23 24 24 24 24 24 25
20 20 21 21 22 23 24 24 24 24 24 25 23 23 22 23 23 23 22 21 19 19 19 19 18 18 18 18 19 19 19 19 20 20 21 22 22 22 22 23 23 23 23 23
21 21 21 21 22 23 23 23 23 23 23 23 22 21 21 22 22 22 22 20 19 19 19 18 18 18 18 18 18 19 19 19 19 19 19 20 21 21 20 21 21 21 21 21
22 21 21 21 22 22 22 23 23 22 22 21 21 21 20 20 21 20 20 19 19 18 18 18 18 18 18 18 17 17 17 17 17 18 19 19 19 20 20 20 21 20 20 21
21 21 21 21 22 22 22 22 23 22 22 21 21 21 20 20 19 19 19 18 17 17 17 17 17 17 17 16 17 17 17 17 16 17 17 18 18 19 19 19 19 20 20 21
21 21 21 21 21 21 22 22 22 22 21 21 21 20 20 19 19 18 17 17 16 16 16 16 16 15 15 16 17 17 17 17 17 16 16 17 17 18 18 18 18 19 20 20
22 22 22 21 21 21 21 21 21 21 21 21 21 20 19 19 18 17 16 15 15 15 15 15 15 15 16 16 16 17 16 16 16 16 16 16 17 17 17 17 17 18 19 19
23 22 22 21 21 21 21 21 20 20 20 20 19 19 18 18 17 16 15 14 15 15 15 15 15 16 16 16 16 16 15 15 16 16 16 16 16 16 16 16 16 17 17 18
23 22 21 20 20 21 21 20 20 19 19 19 18 18 17 17 16 16 15 15 14 15 15 15 15 15 15 15 15 15 15 15 15 15 15 15 15 15 15 15 15 15 16 17
22 21 20 20 20 20 20 20 20 20 19 18 18 17 16 15 15 15 15 14 14 14 14 14 14 14 14 14 14 14 14 14 14 14 15 15 15 14 14 14 14 14 14 14
20 19 19 19 19 19 19 19 19 18 18 18 17 16 16 15 14 14 14 14 13 13 14 14 14 14 14 13 13 13 13 13 13 14 14 14 14 14 13 13 13 13 13 12
20 19 19 19 19 19 19 18 17 17 17 16 16 16 15 14 14 13 13 13 13 13 13 13 13 13 13 13 13 12 12 12 13 13 14 14 14 14 13 13 13 13 12 11
20 20 20 20 19 19 18 17 17 16 16 16 15 15 14 14 14 13 13 13 13 13 12 13 13 13 13 13 13 13 13 13 13 13 13 13 13 13 13 13 12 12 11 11
19 19 19 19 19 18 17 16 16 16 16 15 15 14 14 14 14 14 14 13 13 12 12 13 13 13 13 13 13 13 13 13 13 14 13 13 13 13 12 12 11 11 11 11
18 18 19 19 18 17 16 16 16 16 16 15 15 14 14 14 13 13 13 13 13 13 13 13 13 13 13 14 14 13 13 13 13 14 13 13 12 12 11 10 10 10 10 10
18 18 18 18 17 16 16 16 16 16 16 15 15 14 14 14 13 13 13 13 13 13 13 13 12 12 12 12 12 12 12 13 13 13 12 12 11 11 10 10 9 10 10 10
18 18 18 17 17 16 16 16 16 16 16 15 15 15 15 14 13 13 13 13 13 13 12 12 12 12 12 11 11 12 12 13 12 12 12 11 11 10 10 9 9 10 11 11
18 18 18 18 17 17 16 16 16 16 16 15 15 15 14 13 13 13 13 12 12 12 12 11 12 11 11 11 11 11 12 12 11 11 11 11 10 10 10 10 10 10 11 11
18 18 18 18 18 17 17 16 16 16 16 15 15 14 14 13 13 13 13 13 12 12 12 11 11 11 10 11 11 11 11 11 10 10 10 9 9 9 9 9 9 10 10 11
Wind_Direction
293 292 291 291 289 285 283 283 286 288 293 295 294 293 295 297 296 294 295 294 294 291 288 285 281 276 273 268 262 259 257 256 257 257 258 259 258 256 256 257 257 257 256 255
291 291 291 289 288 285 282 282 286 287 291 293 294 295 295 294 295 295 296 296 295 295 292 287 282 277 272 270 266 261 258 257 257 258 260 261 261 260 260 259 258 256 257 255
292 293 291 288 288 286 286 286 287 288 290 291 293 295 296 294 294 294 295 295 297 298 296 289 286 280 276 272 270 267 262 259 258 258 260 261 261 261 261 261 259 258 258 256
292 292 291 290 289 288 287 287 289 291 292 291 293 295 295 294 293 293 296 297 298 299 296 288 284 282 278 274 271 269 266 262 258 257 258 259 260 261 261 262 261 261 259 257
291 291 291 287 288 289 287 287 288 291 291 290 291 294 295 294 293 293 295 297 299 299 297 291 285 281 281 277 272 268 267 264 259 258 258 258 259 260 260 260 259 260 259 258
290 291 291 289 288 288 287 287 288 290 292 291 290 294 296 295 294 294 296 297 297 298 295 293 287 282 279 276 273 269 266 264 262 261 261 260 259 259 260 258 257 257 258 258
289 287 287 288 288 288 289 291 291 292 294 294 292 293 295 295 295 296 297 297 297 295 294 292 288 283 278 274 271 270 269 269 267 265 264 263 261 261 259 257 255 256 257 257
291 288 286 287 286 287 291 292 292 292 295 295 294 292 293 294 296 297 298 299 296 293 293 291 288 285 281 274 272 271 270 269 269 267 265 264 263 262 263 261 257 257 257 257
295 291 288 286 285 287 290 291 292 292 294 294 293 292 292 293 294 296 297 297 294 292 293 292 287 284 283 279 275 273 273 271 270 269 267 264 264 264 264 263 261 260 258 257
297 293 289 287 286 288 290 292 292 292 292 292 292 291 292 293 293 294 295 294 291 289 289 289 287 285 285 282 277 273 273 272 271 269 269 266 265 267 266 263 262 260 259 256
299 296 291 287 287 288 291 293 294 293 292 292 292 291 292 293 293 293 293 291 289 290 288 286 283 283 283 282 278 277 277 276 274 272 269 267 266 268 267 264 261 259 260 259
299 298 293 288 286 289 290 293 295 295 294 292 291 293 294 294 293 292 291 289 288 287 287 284 282 283 283 281 279 280 280 279 277 274 271 270 270 270 266 264 264 263 262 259
298 297 294 290 287 290 292 294 295 295 294 292 290 292 292 292 292 291 290 288 286 285 284 283 283 285 284 282 282 283 282 279 276 275 273 273 274 272 268 267 266 263 261 260
298 296 295 292 290 290 292 294 295 296 293 291 291 291 291 290 290 290 290 287 285 283 283 282 283 283 283 282 283 283 283 282 279 277 276 277 276 273 270 267 266 264 262 262
296 295 294 294 292 291 293 294 295 295 294 291 290 291 289 288 288 289 287 285 285 283 282 282 281 282 284 284 284 285 284 280 278 278 278 278 277 275 273 270 267 264 264 264
294 293 292 292 292 293 294 294 295 295 294 293 291 291 289 287 286 286 284 282 284 284 283 282 282 286 286 284 285 286 284 280 278 277 277 278 277 278 277 273 270 269 267 266
293 291 290 290 291 293 294 293 293 293 295 293 292 292 289 286 285 284 280 278 280 281 283 284 284 284 286 287 287 287 285 282 281 279 278 279 280 279 278 275 273 272 271 269
292 289 288 289 292 294 295 295 293 292 293 292 291 291 290 288 286 284 280 278 278 281 283 284 285 286 288 289 287 289 288 287 284 284 283 281 281 281 278 274 272 272 271 269
291 288 287 289 292 294 296 296 296 294 293 292 290 288 286 285 284 282 280 278 278 279 280 283 285 288 290 289 290 291 290 288 288 289 288 285 283 281 276 272 271 272 269 261
286 286 287 290 292 294 295 296 296 296 296 294 290 285 283 282 281 279 279 278 278 278 278 280 282 286 290 292 293 291 291 291 292 291 289 286 284 279 274 272 270 267 260 253
285 285 287 290 293 294 294 294 295 295 296 296 292 286 282 281 279 277 276 277 277 277 278 278 280 284 288 292 292 291 291 292 292 292 289 287 285 280 276 272 266 258 253 247
286 286 289 291 292 292 292 293 294 295 296 296 293 288 285 282 278 275 274 275 275 275 278 279 281 283 286 289 290 289 288 290 291 291 289 287 285 280 277 270 261 254 249 244
287 288 289 291 291 289 289 290 293 295 295 293 291 288 286 283 280 276 273 272 272 275 279 281 281 283 286 287 289 288 286 288 290 289 288 286 283 277 270 263 256 248 244 242
288 288 289 290 289 287 288 289 291 293 293 290 288 288 286 282 278 275 273 272 273 275 278 280 281 285 287 287 288 287 285 287 288 287 286 284 278 269 262 257 251 246 242 238
286 287 288 289 286 286 286 288 289 289 289 289 288 286 284 281 277 274 273 272 273 274 276 278 282 286 287 286 286 287 287 286 284 283 283 280 272 262 255 252 248 242 238 234
283 285 287 287 285 283 284 285 287 287 286 287 287 285 283 279 274 272 272 272 273 274 277 280 284 286 286 284 283 287 290 289 283 279 279 276 266 256 251 251 246 239 233 229
282 283 284 285 285 283 282 283 284 285 284 284 285 283 280 278 275 271 270 270 271 273 275 278 281 284 287 289 287 288 288 287 283 278 276 272 260 250 247 246 242 235 228 225
Height
5609 5607 5605 5604 5602 5600 5598 5597 5595 5595 5592 5590 5587 5585 5582 5580 5578 5575 5573 5570 5567 5565 5562 5559 5557 5555 5554 5554 5555 5556 5557 5559 5560 5561 5562 5563 5564 5566 5567 5568 5569 5570 5571 5572
5603 5600 5598 5597 5595 5593 5592 5590 5589 5587 5587 5584 5581 5579 5577 5574 5572 5569 5567 5563 5561 5558 5555 5552 5550 5548 5547 5547 5547 5548 5549 5550 5551 5553 5554 5555 5556 5557 5557 5558 5559 5560 5561 5562
5596 5594 5592 5591 5590 5588 5586 5585 5583 5581 5581 5578 5576 5573 5571 5568 5566 5563 5560 5558 5555 5552 5548 5546 5544 5542 5541 5541 5540 5540 5541 5542 5543 5544 5545 5546 5547 5547 5548 5549 5549 5550 5551 5553
5588 5588 5586 5587 5583 5582 5580 5578 5577 5575 5573 5572 5569 5567 5565 5562 5559 5557 5554 5552 5548 5545 5542 5540 5538 5536 5535 5534 5534 5534 5534 5535 5536 5536 5537 5538 5539 5539 5539 5540 5541 5542 5543 5544
5582 5580 5579 5580 5578 5575 5573 5573 5571 5569 5567 5565 5563 5561 5559 5556 5553 5550 5548 5545 5542 5539 5536 5534 5532 5531 5529 5528 5527 5527 5527 5528 5528 5529 5530 5530 5531 5531 5532 5532 5533 5534 5535 5536
5575 5573 5573 5574 5571 5568 5567 5566 5564 5562 5560 5558 5556 5554 5553 5549 5547 5544 5542 5539 5536 5533 5530 5528 5526 5525 5523 5522 5522 5521 5521 5521 5521 5522 5522 5523 5523 5524 5524 5525 5526 5526 5527 5528
5568 5566 5566 5567 5564 5562 5562 5561 5557 5555 5553 5551 5549 5547 5545 5542 5540 5537 5535 5533 5530 5527 5525 5523 5521 5520 5518 5517 5516 5516 5515 5515 5515 5515 5515 5516 5516 5517 5517 5518 5519 5520 5520 5521
5562 5560 5562 5559 5557 5556 5555 5552 5550 5548 5546 5544 5542 5539 5537 5535 5533 5531 5528 5526 5524 5522 5520 5518 5516 5515 5513 5512 5511 5511 5510 5510 5510 5509 5509 5509 5510 5510 5511 5511 5512 5512 5513 5514
5557 5557 5555 5552 5550 5549 5547 5545 5543 5541 5539 5537 5535 5532 5530 5529 5527 5524 5522 5520 5518 5516 5515 5513 5511 5510 5509 5508 5507 5506 5505 5505 5504 5504 5504 5504 5503 5504 5504 5504 5505 5505 5506 5507
5550 5550 5548 5546 5544 5542 5541 5538 5536 5534 5532 5530 5528 5526 5524 5522 5520 5518 5516 5514 5512 5511 5509 5508 5506 5505 5504 5503 5502 5501 5500 5499 5499 5498 5498 5497 5497 5497 5497 5498 5498 5499 5499 5500
5544 5543 5541 5540 5538 5536 5534 5532 5530 5528 5525 5523 5521 5519 5517 5515 5513 5512 5510 5508 5507 5505 5504 5503 5501 5500 5499 5498 5497 5496 5495 5494 5493 5493 5492 5492 5491 5491 5491 5491 5491 5492 5493 5494
5538 5537 5534 5533 5531 5529 5527 5525 5523 5521 5518 5516 5514 5512 5510 5509 5507 5505 5504 5503 5501 5500 5499 5498 5497 5495 5494 5493 5492 5491 5490 5489 5488 5487 5487 5486 5485 5485 5485 5485 5485 5485 5486 5487
5532 5529 5527 5526 5524 5522 5520 5518 5516 5514 5511 5509 5507 5505 5504 5502 5501 5500 5498 5497 5496 5495 5494 5492 5491 5490 5489 5488 5487 5486 5485 5484 5483 5482 5481 5480 5480 5479 5479 5479 5479 5479 5480 5480
5525 5523 5521 5519 5517 5515 5514 5512 5509 5507 5505 5502 5501 5499 5498 5497 5495 5494 5493 5492 5491 5490 5489 5488 5487 5486 5484 5483 5482 5481 5480 5479 5478 5477 5476 5475 5475 5474 5474 5473 5473 5473 5473 5473
5518 5516 5514 5513 5511 5509 5507 5505 5503 5501 5499 5497 5495 5493 5492 5491 5490 5489 5488 5487 5486 5485 5484 5483 5482 5481 5480 5479 5477 5476 5475 5474 5473 5472 5471 5470 5470 5469 5468 5468 5468 5467 5467 5467
5511 5509 5507 5506 5504 5503 5501 5499 5497 5495 5493 5491 5489 5488 5486 5485 5484 5483 5483 5482 5481 5481 5480 5479 5478 5476 5475 5474 5473 5471 5470 5469 5468 5467 5466 5465 5464 5464 5463 5462 5462 5461 5461 5461
5504 5503 5501 5500 5498 5496 5495 5493 5491 5489 5487 5485 5484 5482 5481 5480 5479 5478 5478 5477 5477 5476 5475 5474 5473 5472 5471 5469 5468 5467 5465 5464 5463 5462 5461 5460 5459 5458 5458 5457 5457 5456 5456 5455
5497 5496 5495 5494 5492 5490 5489 5487 5485 5483 5481 5479 5478 5477 5476 5475 5474 5473 5472 5472 5471 5471 5470 5469 5468 5467 5466 5465 5463 5462 5461 5459 5458 5457 5456 5455 5454 5454 5453 5452 5452 5452 5451 5451
5490 5489 5488 5487 5486 5484 5482 5481 5479 5477 5476 5474 5473 5471 5470 5469 5469 5468 5467 5467 5466 5466 5465 5464 5464 5463 5461 5460 5459 5457 5456 5455 5454 5452 5451 5450 5449 5449 5448 5448 5448 5447 5447 5447
5484 5483 5482 5481 5479 5478 5477 5475 5473 5472 5470 5469 5467 5466 5465 5464 5463 5463 5462 5462 5461 5461 5460 5460 5459 5458 5457 5456 5454 5453 5452 5450 5449 5448 5447 5446 5445 5444 5444 5443 5443 5443 5443 5443
5478 5477 5476 5475 5473 5472 5471 5469 5468 5466 5465 5464 5462 5461 5460 5459 5458 5458 5457 5457 5457 5456 5455 5455 5454 5453 5452 5451 5450 5448 5447 5446 5445 5443 5442 5441 5440 5439 5439 5439 5438 5438 5439 5439
5472 5471 5470 5469 5467 5466 5465 5464 5462 5461 5460 5458 5457 5456 5455 5454 5453 5453 5452 5452 5452 5451 5451 5450 5449 5448 5448 5446 5445 5444 5443 5441 5440 5439 5438 5437 5436 5435 5435 5434 5434 5435 5436 5436
5466 5465 5464 5463 5462 5461 5460 5458 5457 5456 5454 5453 5452 5451 5450 5449 5448 5448 5448 5447 5447 5446 5446 5445 5445 5444 5443 5442 5440 5439 5438 5437 5436 5435 5434 5433 5432 5431 5431 5431 5431 5432 5432 5433
5460 5459 5458 5457 5456 5455 5454 5453 5452 5451 5449 5448 5447 5446 5445 5444 5443 5443 5443 5442 5442 5442 5441 5440 5440 5439 5438 5437 5436 5435 5434 5433 5432 5431 5430 5429 5428 5428 5428 5428 5428 5429 5429 5430
5455 5454 5453 5452 5451 5450 5449 5448 5447 5446 5445 5443 5442 5441 5440 5439 5439 5438 5438 5438 5437 5437 5436 5436 5435 5434 5434 5433 5432 5431 5430 5429 5428 5427 5426 5425 5425 5424 5424 5425 5425 5426 5426 5427
5449 5448 5447 5446 5445 5444 5443 5443 5442 5441 5440 5438 5437 5436 5435 5435 5434 5434 5434 5433 5433 5432 5432 5431 5431 5430 5429 5429 5428 5427 5426 5425 5424 5423 5422 5422 5421 5421 5421 5422 5422 5423 5423 5425
5443 5442 5441 5440 5439 5438 5438 5437 5436 5435 5434 5433 5433 5432 5431 5430 5430 5429 5429 5429 5428 5428 5428 5427 5427 5426 5425 5425 5424 5423 5422 5421 5420 5419 5419 5418 5418 5418 5418 5419 5419 5420 5421 5422